Preview of NWS' New Version of Forecast
This preview is not operational and should not be used for support decisions.

Regional Weather Roundup (RWR)

Issued by National Weather Service (NWS)

                            
000
ASUS42 KTBW 200918
RWRFL 
FLORIDA REGIONAL WEATHER ROUNDUP
NATIONAL WEATHER SERVICE TAMPA BAY RUSKIN FL
500 AM EDT TUE AUG 20 2019

NOTE: "FAIR" INDICATES FEW OR NO CLOUDS BELOW 12,000 FEET WITH NO
SIGNIFICANT WEATHER AND/OR OBSTRUCTIONS TO VISIBILITY.

FLZ001>010-012>015-112-114-115-201000-
PANHANDLE FLORIDA
  
CITY           SKY/WX    TMP DP  RH WIND       PRES   REMARKS
PENSACOLA      FAIR      77  77 100 CALM      30.02F                  
PENSACOLA NAS  FAIR      77  77 100 CALM      30.02F                  
MILTON NAS     FAIR      74  74 100 CALM      30.04S                  
CRESTVIEW      FAIR      74  72  93 CALM      30.05F                  
DUKE FIELD     FAIR      75  75 100 CALM      30.03F                  
VALPARAISO     MOCLDY    76  75  99 CALM      30.03F                  
MARY ESTHER    MOCLDY    76  73  91 CALM      30.02F                  
TRI COUNTY     FAIR      74  73  97 S3        30.06S                  
PANAMA CITY    FAIR      77  74  90 CALM      30.04F                  
TYNDALL AFB    FAIR      78  73  85 CALM      30.04F                  
APALACHICOLA   FAIR      77  73  87 CALM      30.04F                  

STATION/POSITION SKY/WX   TEMP    WIND        PRES    WAVE   SWELL
                          AIR SEA DIR/SP/G            HT/PER HT/PER
                          (F)     (DEG/KT/KT) (MB)    (FT/S) (FT/S)
30.1N   87.6W              80 85  190/  6/  8 1016.7F   2/ 5   2/ 5
29.2N   88.2W              82 83  200/  4/  6 1017.1R   2/ 6   2/ 6
28.8N   86.0W                 84   70/  2/  4 1017.3F   2/ 5   2/ 5
PANAMA CITY BEAC           82 85  180/  7/  8 1018.0
TOWER C                    80     110/  2/  3 1018.0S
28.5N   84.5W              82      50/ 10/ 12 1017.7S   2/ 6   2/ 6

$$
FLZ011-016>038-118-127-128-134-139-239-201000-
NORTH FLORIDA
  
CITY           SKY/WX    TMP DP  RH WIND       PRES   REMARKS
MARIANNA       FAIR      76  75  97 SE3       30.05S                  
TALLAHASSEE    FAIR      76  75  97 CALM      30.06F                  
PERRY          FAIR      75  74  97 CALM      30.08R FOG              
LIVE OAK       CLOUDY    73  73 100 CALM      30.07S                  
CROSS CITY     FAIR      74  73  98 CALM      30.07S                  
LAKE CITY      FAIR      72  70  94 CALM      30.08S                  
GAINESVILLE    FAIR      73  72  96 CALM      30.09F                  
MAYPORT NAS    MOCLDY    77  73  87 SE3       30.07F                  
JACKSONVILLE   MOCLDY    76  73  91 CALM      30.07S                  
JAX NAS        MOCLDY    79  72  79 CALM      30.08F                  
JAX CECIL      FAIR      75  73  94 CALM      30.07S                  
FERNANDINA BEA FAIR      74  74  99 E3        30.08S                  
ST AUGUSTINE   FAIR      76  74  93 CALM      30.09S                  
PALM COAST     FAIR      75  74  95 CALM      30.07S                  

STATION/POSITION SKY/WX   TEMP    WIND        PRES    WAVE   SWELL
                          AIR SEA DIR/SP/G            HT/PER HT/PER
                          (F)     (DEG/KT/KT) (MB)    (FT/S) (FT/S)
SHELL POINT      NOT AVBL
KEATON BEACH               75      90/  3/  5 1018.2F
CEDAR KEY                  76      60/  7/  9 1018.3F
FERNANDINA                 80 82              1019.3
30.7N   81.3W                 81                N/A     1/ 9
MAYPORT                    77 82   CALM  /  2 1019.0
31.4N   80.9W              81 82  210/  6/  8 1018.8F   1/ 9   2/ 9
ST AUGUSTINE               80 82   40/  6/  6 1018.4F

$$
FLZ040-043>046-052-053-057-058-063-144-201000-
INTERIOR CENTRAL FLORIDA
  
CITY           SKY/WX    TMP DP  RH WIND       PRES   REMARKS
OCALA          FAIR      74  74 100 NE3       30.07F                  
LEESBURG       FAIR      76  74  93 N6        30.08S                  
SANFORD        FAIR      77  75  93 N7        30.06S                  
ORLANDO EXEC   FAIR      78  71  79 CALM      30.06S                  
ORLANDO INTL   FAIR      75  71  87 NW5       30.06S                  
KISSIMMEE      FAIR      78  76  93 NE3       30.07S                  
WINTER HAVEN   FAIR      79  75  87 NE3       30.06F                  
SEBRING        FAIR      76  74  95 CALM      30.05S                  
OKEECHOBEE     FAIR      73  72  94 CALM      30.05S                  

$$
FLZ041-047-054-059-064-141-147-201000-
EAST CENTRAL FLORIDA
  
CITY           SKY/WX    TMP DP  RH WIND       PRES   REMARKS
DAYTONA BEACH  FAIR      78  78 100 CALM      30.07S                  
DELAND         FAIR      75  73  94 CALM      30.07S                  
JFK SPACE CTR  MOCLDY   N/A N/A N/A E6          N/A                   
CAPE CANAVERAL FAIR      78  77  99 CALM      30.04F                  
PATRICK AFB    FAIR      81  81 100 E8        30.05S                  
MELBOURNE      FAIR      82  76  81 E6        30.05S                  
VERO BEACH     FAIR      77  74  90 S3        30.06R                  
FT PIERCE      FAIR      77  71  82 CALM      30.05S                  
STUART         FAIR      77  72  83 CALM      30.07S                  

STATION/POSITION SKY/WX   TEMP    WIND        PRES    WAVE   SWELL
                          AIR SEA DIR/SP/G            HT/PER HT/PER
                          (F)     (DEG/KT/KT) (MB)    (FT/S) (FT/S)
28.5N   80.2W              83 84  100/  4/  6 1017.9F   2/ 4   2/ 4
28.9N   78.5W              84 86  120/  6/ 10 1019.0F   2/ 6   2/ 6
TRIDENT PIER               78 80   60/  4/  6 1019.1
28.4N   80.5W                 80                N/A     2/ 4
27.5N   80.2W                 83                N/A     2/ 4

$$
FLZ050-056-061-142-242-148-248-149-249-151-251-155-255-
160-260-201000-
WEST CENTRAL FLORIDA
  
CITY           SKY/WX    TMP DP  RH WIND       PRES   REMARKS
CRYSTAL RIVER  FAIR      73  72  94 E3        30.06S                  
INVERNESS      FAIR      73  73 100 CALM      30.07R                  
BROOKSVILLE    FAIR      76  73  91 NE6       30.06S                  
CLEARWATER AIR FAIR      75  73  94 NE5       30.04S                  
ST PETE CLEARW FAIR      79  75  87 NE6       30.04S                  
TAMPA INTL     FAIR      77  74  90 NE3       30.05S                  
PLANT CITY     FAIR     N/A N/A N/A NE3       30.07S                  
MACDILL AFB    FAIR      76  74  93 E7        30.04S                  
PETER O KNIGHT MOCLDY   N/A N/A N/A E7        30.05S                  
ST PETERSBURG  FAIR      80  76  87 NE8       30.03S                  
SARASOTA       FAIR      76  75  97 CALM      30.03R                  
VENICE         FAIR      77  77 100 NE5       30.05R                  

STATION/POSITION SKY/WX   TEMP    WIND        PRES    WAVE   SWELL
                          AIR SEA DIR/SP/G            HT/PER HT/PER
                          (F)     (DEG/KT/KT) (MB)    (FT/S) (FT/S)
27.3N   84.2W                 85                N/A     2/ 7
CLEARWATER BEACH           79 86   40/  5/  6 1017.5
MIDDLE TAMPA BAY           79      80/  9/ 10 1017.3
VENICE                     76 86   60/  4/  5 1017.0R

$$
FLZ066-069-070-075>078-162-262-165-265-201000-
SOUTHWEST FLORIDA AND KEYS
  
CITY           SKY/WX    TMP DP  RH WIND       PRES   REMARKS
PUNTA GORDA    FAIR      75  75 100 E5        30.05S                  
FT MYERS       FAIR      76  73  91 E5        30.02S                  
SOUTHWEST INTL FAIR      76  74  93 E6        30.03S                  
NAPLES         FAIR      77  75  93 NE3       30.02R                  
IMMOKALEE      FAIR      75  73  94 CALM      30.02R                  
MARATHON       FAIR      83  74  74 E7        29.99S                  
KEY WEST NAS   FAIR      84  73  69 E13       29.98F                  
KEY WEST INTL  FAIR      83  74  74 E10       29.99S                  

STATION/POSITION SKY/WX   TEMP    WIND        PRES    WAVE   SWELL
                          AIR SEA DIR/SP/G            HT/PER HT/PER
                          (F)     (DEG/KT/KT) (MB)    (FT/S) (FT/S)
NAPLES                     78 86              1016.5
26.0N   85.6W              83 86   50/ 10/ 14 1016.2S   3/ 7   2/ 7
DRY TORTUGAS               84     120/  8/  9 1015.2F
SAND KEY                   83     110/ 16/ 20 1013.8F
SOMBRERO KEY               83     110/ 13/ 16 1015.8S
LONG KEY                   82                 1014.9S

$$
FLZ067-068-071>074-168-172>174-201000-
SOUTHEAST FLORIDA 
  
CITY           SKY/WX    TMP DP  RH WIND       PRES   REMARKS
W PALM BEACH   FAIR      79  74  84 E3        30.05S                  
FT LAUDER-EXEC FAIR      80  73  79 E7        30.03S                  
FT LAUDERDALE  FAIR      83  72  69 E10       30.02F                  
POMPANO BEACH  MOCLDY    83  73  72 E9        30.03S                  
PEMBROKE PINES FAIR      80  73  79 NE5       30.04S                  
OPA LOCKA      FAIR      79  74  84 E6        30.03S                  
MIAMI          FAIR      82  74  76 SE6       30.02S                  
WEST KENDALL   FAIR      80  74  81 S3        30.02S                  
HOMESTEAD      FAIR      77  73  87 CALM      30.01S                  

STATION/POSITION SKY/WX   TEMP    WIND        PRES    WAVE   SWELL
                          AIR SEA DIR/SP/G            HT/PER HT/PER
                          (F)     (DEG/KT/KT) (MB)    (FT/S) (FT/S)
VIRGINIA KEY               82 89  150/  8/ 10 1016.3
LAKE WORTH                        130/  8/  9   N/A
FOWEY ROCKS                81 86  150/ 13/ 14 1016.9R
SETTLEMENT POINT           82     110/ 11/ 12 1017.9F

$$